• Join FlightAware (Why Join?)
  • Login
  • US Flag GB Flag 
22:07 EDT


 

Airport Tracker/Info


-or-


 

Live Flight TrackerFlight Track Log ✈ AWE1454 ✈ 27-Apr-2013 ✈ KATL - KPHL

Flight Track Log - Related Links

Times and Time Zones

All times are in EDT time to prevent confusion due to time zone crossing. See the AWE1454 flight status page for this flight to view local times or setup timezone preferences in your user account.

Time Position Orientation Groundspeed Altitude Reporting Facility
EDT Latitude Longitude Course Direction KTS MPH feet Rate Location/Type
12:56 33.6333 -84.3833 48° Northeast 154 177 2,500  Level Atlanta TRACON
12:57 33.6333 -84.3167 90° East 222 255 4,700 2,100 Climbing Atlanta TRACON
12:58 33.8460 -84.1568 73° East  Level Estimated
12:58 33.6333 -84.2333 90° East 281 323 6,800  Level Atlanta TRACON
12:59 33.9156 -84.0661 54° Northeast  Level Estimated
12:59 33.6336 -84.1161 90° East 315 362 9,800  Level Atlanta Center
13:00 33.8948 -83.9452 102° East  Level FlightAware Approximate
13:00 33.6878 -84.0289 53° Northeast 316 364 11,900  Level Atlanta Center
13:01 33.9649 -83.8551 48° Northeast  Level Estimated
13:01 33.7608 -83.9389 46° Northeast 334 384 14,700  Level Atlanta Center
13:02 33.8336 -83.8411 48° Northeast 367 422 16,800 2,040 Climbing Atlanta Center
13:03 33.9128 -83.7408 46° Northeast 395 455 18,800 1,980 Climbing Atlanta Center
13:04 33.9856 -83.6278 52° Northeast 418 481 20,800 1,980 Climbing Atlanta Center
13:05 34.0581 -83.5122 53° Northeast 438 504 22,800 1,920 Climbing Atlanta Center
13:06 34.1328 -83.3914 53° Northeast 448 516 24,700 1,800 Climbing Atlanta Center
13:07 34.2175 -83.2575 53° Northeast 448 516 26,500 1,800 Climbing Atlanta Center
13:08 34.2939 -83.1336 53° Northeast 453 521 28,300 1,740 Climbing Atlanta Center
13:09 34.3722 -83.0144 51° Northeast 453 521 30,000 1,620 Climbing Atlanta Center
13:10 34.4442 -82.8953 54° Northeast 453 521 31,600 1,500 Climbing Atlanta Center
13:11 34.5161 -82.7733 54° Northeast 453 521 33,000 1,260 Climbing Atlanta Center
13:12 34.5900 -82.6561 53° Northeast 444 511 34,200 960 Climbing Atlanta Center
13:13 34.6575 -82.5464 53° Northeast 438 504 35,000 1,080 Climbing Atlanta Center
13:14 34.7269 -82.4314 54° Northeast 432 497 36,400 960 Climbing Atlanta Center
13:15 34.7986 -82.3161 53° Northeast 432 497 37,000 300 Climbing Atlanta Center
13:16 34.8739 -82.1931 53° Northeast 437 503 37,000  Level Atlanta Center
13:17 34.9594 -82.0569 52° Northeast 447 514 37,000  Level Atlanta Center
13:18 35.0367 -81.9231 55° Northeast 467 537 37,000  Level Atlanta Center
13:19 35.1114 -81.7842 57° Northeast 478 550 37,000  Level Atlanta Center
13:20 35.1858 -81.6422 57° Northeast 485 558 37,000  Level Atlanta Center
13:21 35.2603 -81.5028 57° Northeast 490 564 37,000  Level Atlanta Center
13:22 35.3303 -81.3631 58° Northeast 490 564 37,000  Level Atlanta Center
13:23 35.4042 -81.2231 57° Northeast 490 564 37,000  Level Atlanta Center
13:24 35.4742 -81.0831 58° Northeast 490 564 37,000  Level Atlanta Center
13:25 35.5478 -80.9453 57° Northeast 484 557 37,000  Level Atlanta Center
13:26 35.6153 -80.8150 57° Northeast 474 545 37,000  Level Atlanta Center
13:27 35.6847 -80.6817 57° Northeast 462 532 37,000  Level Atlanta Center
13:28 35.7519 -80.5486 58° Northeast 456 525 37,000  Level Atlanta Center
13:30 35.8892 -80.2761 58° Northeast 445 512 37,000  Level Washington Center
13:31 35.9589 -80.1442 57° Northeast 445 512 37,000  Level Washington Center
13:32 36.0331 -80.0022 57° Northeast 445 512 37,000  Level Washington Center
13:33 36.1089 -79.8703 55° Northeast 450 518 37,000  Level Washington Center
13:34 36.1758 -79.7478 56° Northeast 461 531 37,000  Level Washington Center
13:35 36.2578 -79.6025 55° Northeast 466 536 37,000  Level Washington Center
13:36 36.3244 -79.4850 55° Northeast 466 536 37,000  Level Washington Center
13:37 36.4083 -79.3342 55° Northeast 466 536 37,000  Level Washington Center
13:38 36.4792 -79.2033 56° Northeast 471 542 37,000  Level Washington Center
13:39 36.5583 -79.0725 53° Northeast 470 541 37,000  Level Washington Center
13:40 36.6331 -78.9361 56° Northeast 470 541 37,000  Level Washington Center
13:41 36.7014 -78.8069 57° Northeast 477 549 37,000 -480 Level Washington Center
13:42 36.7886 -78.6600 53° Northeast 482 555 36,100 -1,080 Descending Washington Center
13:43 36.8850 -78.5547 41° Northeast 454 522 34,900 -1,080 Descending Washington Center
13:44 36.9856 -78.4597 37° Northeast 449 517 34,000 -480 Descending Washington Center
13:45 37.0772 -78.3697 38° Northeast 460 529 34,000  Level Washington Center
13:46 37.1797 -78.2717 37° Northeast 460 529 34,000  Level Washington Center
13:47 37.2842 -78.1733 37° Northeast 460 529 34,000 -600 Level Washington Center
13:48 37.3928 -78.0647 38° Northeast 455 524 32,900 -1,440 Descending Washington Center
13:49 37.4928 -77.9658 38° Northeast 455 524 31,200 -960 Descending Washington Center
13:50 37.5928 -77.8642 39° Northeast 455 524 31,000 -120 Descending Washington Center
13:51 37.6947 -77.7650 38° Northeast 455 524 31,000  Level Washington Center
13:52 37.7967 -77.6653 38° Northeast 455 524 31,000  Level Washington Center
13:53 37.8964 -77.5628 39° Northeast 455 524 31,000  Level Washington Center
13:54 37.9981 -77.4628 38° Northeast 455 524 31,000  Level Washington Center
13:55 38.0892 -77.3753 37° Northeast 450 518 31,000  Level Washington Center
13:56 38.1886 -77.2719 39° Northeast 450 518 31,000  Level Washington Center
13:57 38.2817 -77.1761 39° Northeast 460 529 31,000  Level Washington Center
13:58 38.3914 -77.0672 38° Northeast 460 529 31,000 -720 Level Washington Center
13:59 38.4886 -76.9683 39° Northeast 455 524 29,600 -1,980 Descending Washington Center
14:00 38.5856 -76.8692 39° Northeast 455 524 27,100 -2,520 Descending Washington Center
14:01 38.6761 -76.7750 39° Northeast 442 509 24,700 -2,340 Descending Washington Center
14:02 38.7275 -76.6375 64° Northeast 415 478 22,500 -2,040 Descending Washington Center
14:03 38.7556 -76.4967 76° East 402 463 20,700 -1,740 Descending Washington Center
14:04 38.7836 -76.3586 75° East 397 457 19,000 -1,620 Descending Washington Center
14:05 38.8094 -76.2256 76° East 391 450 17,600 -1,680 Descending Washington Center
14:06 38.8414 -76.0928 73° East 386 444 15,700 -1,320 Descending Washington Center
14:07 38.8689 -75.9703 74° East 374 430 15,000 -360 Descending Washington Center
14:08 38.8964 -75.8425 75° East 362 417 15,000 -240 Level Washington Center
14:09 38.9717 -75.7597 41° Northeast 344 396 14,600 -1,380 Descending Washington Center
14:11 39.1667 -75.6667 20° North 329 379 10,700 -1,500 Descending Philadelphia TRACON
14:12 39.2500 -75.6667 360° North 267 307 10,000 -840 Descending Philadelphia TRACON
14:13 39.3167 -75.6333 21° North 270 311 9,100 -1,320 Descending Philadelphia TRACON
14:15 39.3833 -75.5667 38° Northeast 264 304 7,200 -1,020 Descending Philadelphia TRACON
14:16 39.4000 -75.4833 75° East 279 321 7,000 -120 Descending Philadelphia TRACON
14:16 39.4167 -75.4000 75° East 274 315 7,000  Level Philadelphia TRACON
14:18 39.4333 -75.3000 78° East 220 253 7,000  Level Philadelphia TRACON
14:19 39.4667 -75.2500 49° Northeast 223 257 7,000 -480 Level Philadelphia TRACON
14:20 39.5333 -75.2667 349° North 226 260 6,000 -480 Descending Philadelphia TRACON
14:21 39.6000 -75.3000 339° North 226 260 6,000  Level Philadelphia TRACON
14:22 39.6500 -75.3333 333° Northwest 225 259 6,000  Level Philadelphia TRACON
14:23 39.7000 -75.3667 333° Northwest 219 252 6,000  Level Philadelphia TRACON
14:23 39.7333 -75.4000 322° Northwest 192 221 6,000 -600 Level Philadelphia TRACON
14:25 39.7167 -75.4833 255° West 206 237 4,800 -960 Descending Philadelphia TRACON
14:26 39.7667 -75.5000 346° North 193 222 4,000 -840 Descending Philadelphia TRACON
14:27 39.8167 -75.4833 14° North 192 221 3,200 -960 Descending Philadelphia TRACON
14:28 39.8333 -75.4167 72° East 189 217 2,200 -960 Descending Philadelphia TRACON
14:29 39.8500 -75.3500 72° East 166 191 1,300 -900 Descending Philadelphia TRACON